Location: Unspecified
(0.0000°N, 0.0000°E)
Time: 08:52:29
(UTC+00:00)

N. Korean satellite - Pass Details

Date: 02 December 2022
Orbit: 421 x 454 km, 97.3° (Epoch: 29 November)

Event Time Altitude Azimuth Distance (km) Brightness Sun altitude
Rises 04:57:26 0° 8° (N) 2,423 10.0 -12.0°
Reaches altitude 10° 04:59:28 10° 7° (N) 1,552 9.0 -11.5°
Maximum altitude 05:02:47 76° 281° (WNW) 456 6.2 -10.8°
Drops below altitude 10° 05:06:05 10° 195° (SSW) 1,542 9.2 -10.0°
Sets 05:08:05 0° 193° (SSW) 2,407 10.2 -9.6°
